Hourly Data Report for June 09, 2021

CARIBOU POINT (AUT)
NOVA SCOTIA
Current Station Operator: ECCC - MSC

45°46'00.000" N
62°41'00.000" W
2.40 m
8200774
71415
WBK

Download Data

Hourly Data (June 2021)
Hourly Data Report for June 9, 2021
TIME
LST
Temp Definition
°C
Dew Point Definition
°C
Rel Hum Definition
%
Precip. Amount Definition
mm

Wind Dir Definition
10's deg

Wind Spd Definition
km/h
Visibility Definition
km
Stn Press Definition
kPa
Hmdx Definition


Wind Chill Definition


Weather Definition


00:00 16.3 11.9 75 0.0 14 4   101.01     LegendNANA
01:00 15.8 13.6 87 0.0 36 4   100.99     LegendNANA
02:00 15.3 13.0 86 0.0 5 3   100.96     LegendNANA
03:00 15.7 13.8 88 0.0 25 3   100.95     LegendNANA
04:00 15.6 12.2 80 0.0 2 20   100.94     LegendNANA
05:00 15.9 12.8 82 0.0 6 10   100.98     LegendNANA
06:00 15.6 13.4 87 0.3 12 7   101.01     LegendNANA
07:00 15.2 12.8 86 0.2 17 24   101.02     LegendNANA
08:00 16.5 12.4 77 1.4 12 5   100.99     LegendNANA
09:00 15.2 13.0 87 0.0 3 10   100.96     LegendNANA
10:00 15.2 12.4 83 0.0 5 19   100.91     LegendNANA
11:00 15.7 12.7 82 0.0 5 17   100.91     LegendNANA
12:00 17.0 12.4 74 0.0 9 8   100.88     LegendNANA
13:00 17.4 13.3 77 0.0 15 7   100.85     LegendNANA
14:00 17.6 13.7 78 0.0 11 5   100.82     LegendNANA
15:00 18.2 15.0 82 0.0 32 16   100.88     LegendNANA
16:00 19.6 13.9 69 0.0 29 29   100.84     LegendNANA
17:00 19.6 13.2 67 0.0 29 23   100.83     LegendNANA
18:00 17.9 12.8 72 0.0 31 26   100.84     LegendNANA
19:00 16.6 11.2 71 0.0 32 24   100.87     LegendNANA
20:00 16.3 12.1 76 0.0 32 21   100.92     LegendNANA
21:00 14.2 11.9 86 0.0 4 14   101.00     LegendNANA
22:00 12.6 8.9 78 0.0 1 21   101.05     LegendNANA
23:00 12.2 7.2 71 0.0 5 13   101.04     LegendNANA

Notes on Data Quality.

Legend

  • E = Estimated
  • M = Missing
  • NA = Not Available*
  • [empty] = Indicates an unobserved value
Date modified: